Quillayute, WA
on Sunday, January 6, 2013

Sunday
Previous Day Next Day
Daily Summary
 ActualAverageRecord
Temperature
Mean Temperature °F 41°F  
Max Temperature 45°F 46°F 57°F (2003)
Min Temperature 37°F 36°F 10°F (1982)
Degree Days
Heating Degree Days 24 24  
Month to date heating degree days 144  
Since 1 July heating degree days 2622  
Cooling Degree Days 0 0  
Month to date cooling degree days 0  
Year to date cooling degree days 0  
Moisture
Dew Point 41°F   
Average Humidity 96    
Maximum Humidity 100    
Minimum Humidity 90    
Precipitation
Precipitation 0.74 in 0.48 in 3.95 in (1997)
Month to date precipitation 2.81  
Year to date precipitation 2.81  
Wind
Wind Speed 6 mph   
Max Wind Speed 14 mph   
Max Gust Speed 22 mph   
Visibility 3 miles   
Events Rain   

Key: T is trace of precipitation, MM is missing value
Source: NWS Daily Summary
Time(PST)TemperatureDew PointHumidity Pressure Visibility Wind DirectionWind SpeedGust SpeedPrecipitationEvents Conditions
12:08 AM 39.2°F 39.2°F 100% 30.12 in 5.0 miles Calm Calm - 0.00 in   Overcast
12:23 AM 39.2°F 37.4°F 93% 30.11 in 5.0 miles Calm Calm - 0.00 in   Scattered Clouds
12:53 AM 37.9°F 37.0°F 97% 30.12 in 5.0 miles Calm Calm - 0.00 in   Clear
1:53 AM 37.9°F 37.0°F 97% 30.12 in 5.0 miles Calm Calm - N/A   Scattered Clouds
2:53 AM 39.0°F 37.9°F 96% 30.12 in 6.0 miles SSE 3.5 mph - N/A   Overcast
3:53 AM 39.2°F 39.2°F 100% 30.11 in 4.0 miles Variable 3.5 mph - N/A Rain Light Rain
4:13 AM 39.2°F 39.2°F 100% 30.11 in 4.0 miles Calm Calm - 0.01 in Rain Light Rain
4:25 AM 39.2°F 39.2°F 100% 30.11 in 2.0 miles Calm Calm - 0.03 in Rain Light Rain
4:36 AM 39.2°F 39.2°F 100% 30.12 in 5.0 miles Calm Calm - 0.03 in   Overcast
4:53 AM 39.9°F 39.0°F 97% 30.12 in 4.0 miles Calm Calm - 0.03 in Rain Light Rain
5:25 AM 41.0°F 39.2°F 93% 30.12 in 1.8 miles Calm Calm - 0.01 in Rain Light Rain
5:35 AM 41.0°F 39.2°F 93% 30.11 in 2.0 miles Calm Calm - 0.04 in Rain Light Rain
5:41 AM 41.0°F 39.2°F 93% 30.11 in 3.0 miles Calm Calm - 0.04 in Rain Light Rain
5:53 AM 41.0°F 39.9°F 96% 30.12 in 3.0 miles Calm Calm - 0.04 in Rain Light Rain
6:08 AM 41.0°F 39.2°F 93% 30.11 in 4.0 miles SSE 4.6 mph - 0.01 in Rain Light Rain
6:53 AM 41.0°F 39.9°F 96% 30.11 in 4.0 miles SSE 4.6 mph - 0.01 in Rain Light Rain
7:20 AM 41.0°F 39.2°F 93% 30.11 in 2.5 miles SW 3.5 mph - 0.01 in Rain Light Rain
7:28 AM 41.0°F 41.0°F 100% 30.11 in 1.5 miles Calm Calm - 0.03 in Rain Rain
7:34 AM 41.0°F 41.0°F 100% 30.11 in 1.8 miles Calm Calm - 0.05 in Rain Light Rain
7:53 AM 41.0°F 39.9°F 96% 30.12 in 2.0 miles SSE 3.5 mph - 0.09 in Rain Light Rain
8:11 AM 41.0°F 41.0°F 100% 30.11 in 2.5 miles SSE 3.5 mph - 0.01 in Rain Light Rain
8:21 AM 41.0°F 41.0°F 100% 30.11 in 2.0 miles SE 4.6 mph - 0.02 in Rain Light Rain
8:29 AM 41.0°F 41.0°F 100% 30.10 in 2.5 miles SE 5.8 mph - 0.02 in Rain Light Rain
8:40 AM 41.0°F 41.0°F 100% 30.11 in 1.8 miles SE 3.5 mph - 0.02 in Rain Light Rain
8:53 AM 41.0°F 41.0°F 100% 30.12 in 1.5 miles SSE 3.5 mph - 0.03 in Rain Light Rain
9:13 AM 41.0°F 41.0°F 100% 30.12 in 1.2 miles SSE 4.6 mph - 0.02 in Rain Light Rain
9:24 AM 41.0°F 41.0°F 100% 30.12 in 1.5 miles SSE 5.8 mph - 0.03 in Rain Light Rain
9:50 AM 42.8°F 41.0°F 93% 30.12 in 1.2 miles Calm Calm - 0.05 in Rain Light Rain
9:53 AM 42.1°F 41.0°F 96% 30.13 in 1.2 miles Calm Calm - 0.05 in Rain Light Rain
10:08 AM 42.8°F 41.0°F 93% 30.13 in 1.0 miles Calm Calm - 0.04 in Rain Light Rain
10:13 AM 42.8°F 41.0°F 93% 30.12 in 1.5 miles Calm Calm - 0.05 in Rain Light Rain
10:19 AM 42.8°F 41.0°F 93% 30.12 in 2.0 miles ESE 3.5 mph - 0.05 in Rain Light Rain
10:37 AM 42.8°F 41.0°F 93% 30.12 in 2.0 miles SE 4.6 mph - 0.06 in Rain Light Rain
10:43 AM 42.8°F 42.8°F 100% 30.12 in 2.0 miles Variable 4.6 mph - 0.06 in Rain Light Rain
10:53 AM 43.0°F 42.1°F 97% 30.12 in 2.5 miles SSE 8.1 mph - 0.06 in Rain Light Rain
11:04 AM 42.8°F 42.8°F 100% 30.11 in 1.5 miles Variable 3.5 mph - 0.00 in Rain Light Rain
11:14 AM 42.8°F 42.8°F 100% 30.11 in 3.0 miles SSE 6.9 mph - 0.01 in Rain Light Rain
11:31 AM 42.8°F 42.8°F 100% 30.10 in 2.5 miles SSE 6.9 mph - 0.01 in Rain Light Rain
11:42 AM 42.8°F 42.8°F 100% 30.09 in 2.0 miles SE 4.6 mph - 0.01 in Rain Light Rain
11:53 AM 43.0°F 42.1°F 97% 30.10 in 2.0 miles SE 5.8 mph - 0.02 in Rain Light Rain
11:56 AM 42.8°F 42.8°F 100% 30.09 in 2.0 miles SSE 6.9 mph - 0.00 in Rain Light Rain
12:07 PM 42.8°F 42.8°F 100% 30.09 in 1.5 miles Variable 4.6 mph - 0.00 in Rain Light Rain
12:16 PM 42.8°F 42.8°F 100% 30.09 in 3.0 miles Variable 3.5 mph - 0.00 in Rain Light Rain
12:23 PM 42.8°F 42.8°F 100% 30.09 in 3.0 miles SSE 4.6 mph - 0.00 in Rain Light Rain
12:29 PM 44.6°F 42.8°F 93% 30.09 in 1.8 miles Variable 3.5 mph - 0.00 in Rain Light Rain
12:45 PM 44.6°F 42.8°F 93% 30.07 in 2.5 miles Variable 4.6 mph - 0.00 in Rain Light Rain
12:50 PM 44.6°F 42.8°F 93% 30.07 in 1.8 miles SSE 8.1 mph - 0.00 in Rain Light Rain
12:53 PM 44.1°F 42.1°F 93% 30.08 in 1.5 miles SSE 4.6 mph - 0.00 in Rain Light Rain
1:18 PM 44.6°F 42.8°F 93% 30.06 in 2.5 miles SSE 6.9 mph - 0.00 in Rain Light Rain
1:25 PM 44.6°F 42.8°F 93% 30.06 in 4.0 miles Variable 5.8 mph - 0.01 in   Overcast
1:53 PM 44.1°F 42.1°F 93% 30.06 in 4.0 miles Variable 5.8 mph - 0.01 in   Overcast
2:02 PM 44.6°F 42.8°F 93% 30.05 in 2.0 miles SE 10.4 mph - 0.00 in Rain Light Rain
2:08 PM 44.6°F 42.8°F 93% 30.05 in 1.2 miles South 8.1 mph - 0.00 in Rain Light Rain
2:27 PM 44.6°F 42.8°F 93% 30.04 in 2.0 miles Variable 6.9 mph - 0.00 in   Overcast
2:35 PM 44.6°F 42.8°F 93% 30.04 in 1.2 miles SSE 10.4 mph 17.3 mph 0.00 in Rain Light Rain
2:50 PM 44.6°F 42.8°F 93% 30.03 in 2.0 miles SSE 8.1 mph - 0.00 in   Overcast
2:53 PM 44.1°F 42.1°F 93% 30.03 in 2.5 miles SSE 6.9 mph - 0.00 in   Overcast
3:01 PM 44.6°F 42.8°F 93% 30.03 in 3.0 miles SSE 5.8 mph - 0.00 in Rain Light Rain
3:08 PM 44.6°F 42.8°F 93% 30.03 in 2.0 miles SSE 8.1 mph - 0.00 in Rain Light Rain
3:16 PM 44.6°F 42.8°F 93% 30.03 in 1.5 miles SSE 6.9 mph - 0.01 in Rain Light Rain
3:19 PM 44.6°F 42.8°F 93% 30.04 in 1.2 miles SSE 8.1 mph - 0.01 in Rain Light Rain
3:31 PM 42.8°F 42.8°F 100% 30.04 in 1.2 miles Variable 6.9 mph 16.1 mph 0.01 in Rain Light Rain
3:43 PM 42.8°F 42.8°F 100% 30.04 in 1.2 miles SSE 8.1 mph 17.3 mph 0.03 in Rain Light Rain
3:53 PM 43.0°F 42.1°F 97% 30.04 in 1.2 miles Variable 5.8 mph 17.3 mph 0.03 in Rain Light Rain
4:29 PM 42.8°F 42.8°F 100% 30.02 in 2.0 miles South 6.9 mph 19.6 mph N/A Rain Light Rain
4:38 PM 42.8°F 42.8°F 100% 30.01 in 2.5 miles SSE 8.1 mph - 0.08 in Rain Light Rain
4:53 PM 43.0°F 42.1°F 97% 30.01 in 2.5 miles SSE 8.1 mph 21.9 mph 0.10 in Rain Light Rain
5:15 PM 42.8°F 42.8°F 100% 30.00 in 3.0 miles SSE 6.9 mph 19.6 mph 0.02 in Rain Light Rain
5:29 PM 42.8°F 42.8°F 100% 29.99 in 4.0 miles SSE 9.2 mph 18.4 mph 0.03 in Rain Light Rain
5:53 PM 43.0°F 42.1°F 97% 29.99 in 4.0 miles SE 10.4 mph 17.3 mph 0.04 in Rain Light Rain
6:07 PM 42.8°F 41.0°F 93% 29.98 in 2.5 miles SSE 9.2 mph - 0.02 in Rain Light Rain
6:53 PM 43.0°F 41.0°F 93% 29.97 in 3.0 miles SE 9.2 mph - 0.05 in Rain Light Rain
7:53 PM 42.8°F 42.8°F 100% 29.95 in 4.0 miles SE 9.2 mph 17.3 mph N/A Rain Light Rain
8:53 PM 43.0°F 42.1°F 97% 29.92 in 4.0 miles SSE 11.5 mph 18.4 mph 0.03 in Rain Light Rain
9:01 PM 42.8°F 42.8°F 100% 29.91 in 3.0 miles SSE 9.2 mph 18.4 mph 0.00 in Rain Light Rain
9:17 PM 42.8°F 42.8°F 100% 29.90 in 2.5 miles SSE 11.5 mph 18.4 mph 0.01 in   Overcast
9:44 PM 44.6°F 42.8°F 93% 29.90 in 3.0 miles Variable 6.9 mph 18.4 mph 0.01 in Rain Light Rain
9:53 PM 44.1°F 42.1°F 93% 29.90 in 2.5 miles SSE 11.5 mph 16.1 mph 0.02 in Rain Light Rain
10:10 PM 44.6°F 42.8°F 93% 29.89 in 3.0 miles SSE 10.4 mph 16.1 mph 0.01 in Rain Light Rain
10:53 PM 44.1°F 43.0°F 96% 29.89 in 4.0 miles SSE 10.4 mph - 0.02 in Rain Light Rain
11:41 PM 44.6°F 42.8°F 93% 29.87 in 2.5 miles SSE 8.1 mph - 0.05 in Rain Light Rain
11:53 PM 45.0°F 44.1°F 97% 29.87 in 3.0 miles SSE 6.9 mph - 0.06 in Rain Light Rain
Moon Phase
Jan. 06 Jan. 11 Jan. 18 Jan. 26 Feb. 03
Sunrise:08:07 AM (PST) Moon Rise:02:18 AM (PST)1/6
Sunset:04:41 PM (PST) Moon Set:12:21 PM (PST)1/6

Copyright © 2014 The Weather Underground, Inc.